Regional Weather Roundup
Issued by NWS

Home | Current Version | Previous Version | Graphics & Text | Print | Product List | Glossary On
Versions: 1 2 3 4 5 6 7 8 9 10 11 12 13 14 15 16 17 18 19 20 21 22 23 24 25 26 27 28 29 30 31 32 33 34 35 36 37 38 39 40 41 42 43 44 45 46 47 48 49 50
000
ASUS43 KDTX 052301
RWRMI
MICHIGAN HOURLY REGIONAL WEATHER ROUNDUP
NATIONAL WEATHER SERVICE DETROIT/PONTIAC MI
700 PM EDT SUN JUL 05 2015

NOTE: "FAIR" INDICATES FEW OR NO CLOUDS BELOW 12,000 FEET WITH NO
SIGNIFICANT WEATHER AND/OR OBSTRUCTION TO VISIBILITY.

MIZ047>049-052>055-059>063-066>070-074>076-081>083-060000-
SOUTHEAST LOWER MICHIGAN

CITY           SKY/WX    TMP DP  RH WIND       PRES   REMARKS
ADRIAN         PTSUNNY   76  60  57 E6        30.10S
ALMA           SUNNY     81  61  50 S5        30.06F
ANN ARBOR      PTSUNNY   76  60  57 SE3       30.10R
BAD AXE        PTSUNNY   77  62  60 SE3       30.09S
CARO           SUNNY     80  63  55 S6        30.07S
DETROIT CITY   PTSUNNY   78  57  48 SE5       30.10R
DETROIT        PTSUNNY   77  57  50 S5        30.10S
FLINT          MOSUNNY   83  60  45 SW6       30.08F
GROSSE ILE     MOSUNNY   73  64  73 S5        30.08S
HILLSDALE      PTSUNNY   79  58  48 SE7       30.10S
HOWELL         MOSUNNY   79  58  48 S6        30.09F

CITY           SKY/WX    TMP DP  RH WIND       PRES   REMARKS
JACKSON        PTSUNNY   79  59  50 SE6       30.09F
LAMBERTVILLE   PTSUNNY   77  59  53 E5        30.10S
LANSING        SUNNY     80  61  52 S8        30.08F
LAPEER         FAIR      78  60  52 SE8       30.09S
MASON          MOSUNNY   77  62  59 SE3       30.08F
MONROE         PTSUNNY   74  59  58 E5        30.09S
MT. CLEMENS    PTSUNNY   74  61  63 SE5       30.08S
PONTIAC        PTSUNNY   80  57  45 S8        30.09S
PORT HOPE        N/A     68  65  90 E8        30.08S
PORT HURON     MOSUNNY   77  63  61 S6        30.10S
TRI CITIES     SUNNY     83  61  47 S6        30.07S
MIDLAND        FAIR      82  58  44 S3        30.05F
TROY           PTSUNNY   81  55  40 S5        30.11S
SAGINAW HB     SUNNY     81  59  47 S6        30.06F
$$
MIZ043>046-050>051-056>058-064>065-071>073-077>080-060000-
SOUTHWEST LOWER MICHIGAN

CITY           SKY/WX    TMP DP  RH WIND       PRES   REMARKS
BATTLE CREEK   SUNNY     82  60  47 S8        30.08F
BENTON HARBOR  SUNNY     79  60  52 VRB3      30.05F
BIG RAPIDS     SUNNY     79  58  48 CALM      30.05F
COLDWATER      MOSUNNY   79  59  49 CALM      30.08S
FREMONT        FAIR      79  53  41 SW6       30.05S
HOLLAND        SUNNY     80  60  50 W7        30.06F
GRAND RAPIDS   MOSUNNY   81  62  52 S9        30.06S
IONIA          FAIR      82  60  46 S6        30.05F
KALAMAZOO      SUNNY     81  61  50 S5        30.07F
LUDINGTON      SUNNY     78  61  56 SW10      30.04F
MARSHALL       MOSUNNY   80  62  53 S5        30.07F
MOUNT PLEASANT SUNNY     81  59  47 SE5       30.05F
MUSKEGON       PTSUNNY   78  58  49 SW7       30.05F
SOUTH HAVEN    SUNNY     78  58  50 CALM      30.05F
$$
MIZ016>042-060000-
NORTHERN LOWER MICHIGAN

CITY           SKY/WX    TMP DP  RH WIND       PRES   REMARKS
ALPENA         SUNNY     75  59  57 SE7       30.06S
BEAVER ISLAND  SUNNY     75  60  58 SW5       30.02S
BELLAIRE       MOSUNNY   84  59  42 S5        30.00F
CADILLAC       SUNNY     79  61  53 S9        30.05F
CHARLEVOIX     SUNNY     78  61  56 W9        30.05R
FRANKFORT      SUNNY     74  56  52 SW3       30.02F
GAYLORD        SUNNY     80  59  48 S7        30.05F
GRAYLING       SUNNY     80  60  50 S8        30.05F
HARBOR SPRINGS SUNNY     75  63  64 SW3       30.02F
HOUGHTON LAKE  MOSUNNY   78  60  53 S7        30.06F
MANISTEE       SUNNY    N/A N/A N/A SW8       30.03S
OSCODA         SUNNY     73  60  63 SE6       30.06F
PELLSTON       SUNNY     81  64  56 NE8       30.02F
ROGERS CITY    SUNNY     77  61  56 SE13      30.04S
TRAVERSE CITY  PTSUNNY   83  62  49 VRB6      30.00R
$$
MIZ007>008-015-060000-
EASTERN UPPER MICHIGAN

CITY           SKY/WX    TMP DP  RH WIND       PRES   REMARKS
KINROSS        SUNNY     79  63  57 SW6       30.03S
MACKINAC ISLAN SUNNY     75  60  58 E3        30.03S
NEWBERRY       SUNNY     74  63  67 S9        30.00F
S. S. MARIE    SUNNY     79  61  53 S10       30.01F
$$
MIZ004>006-011>014-085-060000-
CENTRAL UPPER MICHIGAN

CITY           SKY/WX    TMP DP  RH WIND       PRES   REMARKS
MANISTIQUE     SUNNY     65  58  78 S7        29.99F
ESCANABA       SUNNY     73  63  68 S12G18    29.95F
MENOMINEE      SUNNY     77  61  57 S12       29.95F
SAWYER-GWINN   SUNNY     81  61  50 S17       29.93F
$$
MIZ001>003-009>011-084-060000-
WESTERN UPPER MICHIGAN

CITY           SKY/WX    TMP DP  RH WIND       PRES   REMARKS
IRON MOUNTAIN  SUNNY     81  59  47 S15       29.94S
HOUGHTON       SUNNY     81  62  52 S8        29.85F
COPPER HARBOR    N/A     81  62  52 VRB3      29.84F
IRONWOOD         N/A     81  63  54 S12G21    29.83F
$$

ABBREVIATIONS USED IN REMARKS
   TC - TEMPERATURE IN CELSIUS
  WCI - WIND CHILL INDEX
   HX - HEAT INDEX
  VSB - VISIBILITY



USA.gov is the U.S. government's official web portal to all federal, state and local government web resources and services.